EW8567 Weather Reports


Display with metric or nautical units.
time (UTC)temp
F
wind
direction
speed
MPH
gust
MPH
rain 1hr
in
rain 24hr
in
rain mn
in
humidity
%
barometer
mb
20260507144008 73 77 1.0 2.0 0.00 0.00 0.00 40 1008.2
20260507143505 74 80 1.0 2.0 0.00 0.00 0.00 40 1008.0
20260507143008 74 86 0.0 2.0 0.00 0.00 0.00 39 1008.1
20260507142504 74 86 0.0 2.0 0.00 0.00 0.00 39 1008.1
20260507142008 75 90 1.0 4.0 0.00 0.00 0.00 38 1008.1
20260507141505 76 106 1.0 4.0 0.00 0.00 0.00 37 1008.1
20260507141008 77 134 1.0 4.0 0.00 0.00 0.00 36 1008.0
20260507140505 77 151 2.0 4.0 0.00 0.00 0.00 35 1008.0
20260507140008 77 145 1.0 4.0 0.00 0.00 0.00 36 1008.0
20260507135504 78 135 1.0 6.0 0.00 0.00 0.00 34 1007.9
20260507135008 79 149 1.0 6.0 0.00 0.00 0.00 34 1007.9
20260507134505 80 170 1.0 4.0 0.00 0.00 0.00 34 1007.9
20260507134008 80 162 1.0 4.0 0.00 0.00 0.00 33 1007.9
20260507133504 80 149 1.0 4.0 0.00 0.00 0.00 32 1007.9
20260507133008 80 158 1.0 4.0 0.00 0.00 0.00 33 1007.9
20260507132504 80 153 1.0 4.0 0.00 0.00 0.00 33 1007.8
20260507132009 80 164 1.0 4.0 0.00 0.00 0.00 33 1007.9
20260507131504 80 204 2.0 6.0 0.00 0.00 0.00 33 1007.9
20260507131008 80 127 1.0 6.0 0.00 0.00 0.00 32 1007.9
20260507130504 80 81 1.0 6.0 0.00 0.00 0.00 33 1007.9
20260507130008 80 87 2.0 6.0 0.00 0.00 0.00 33 1008.0
20260507125505 80 81 1.0 4.0 0.00 0.00 0.00 32 1007.9
20260507125008 81 43 1.0 2.0 0.00 0.00 0.00 32 1007.9
20260507124504 80 36 1.0 4.0 0.00 0.00 0.00 32 1007.9
20260507124008 80 62 1.0 4.0 0.00 0.00 0.00 31 1007.8
20260507123504 81 94 1.0 4.0 0.00 0.00 0.00 32 1007.9
20260507123009 81 115 1.0 4.0 0.00 0.00 0.00 32 1007.9
20260507122504 82 118 1.0 6.0 0.00 0.00 0.00 31 1007.9
20260507122008 81 93 1.0 6.0 0.00 0.00 0.00 31 1007.8
20260507121505 81 74 1.0 6.0 0.00 0.00 0.00 32 1007.8
20260507121007 81 44 2.0 4.0 0.00 0.00 0.00 31 1007.9
20260507120505 81 25 2.0 4.0 0.00 0.00 0.00 32 1007.9
20260507120008 82 65 1.0 4.0 0.00 0.00 0.00 31 1008.0
20260507115505 81 73 1.0 4.0 0.00 0.00 0.00 33 1008.0
20260507115008 80 303 3.0 8.0 0.00 0.00 0.00 32 1008.0
20260507114504 81 273 3.0 8.0 0.00 0.00 0.00 32 1008.0
20260507114008 81 250 2.0 6.0 0.00 0.00 0.00 31 1008.1
20260507113504 82 270 2.0 4.0 0.00 0.00 0.00 31 1008.1
20260507113008 81 270 1.0 4.0 0.00 0.00 0.00 32 1008.1
20260507112505 82 103 2.0 7.0 0.00 0.00 0.00 33 1008.3
20260507112008 81 61 2.0 7.0 0.00 0.00 0.00 33 1008.2
20260507111506 81 351 2.0 7.0 0.00 0.00 0.00 32 1008.2
20260507111008 81 343 2.0 7.0 0.00 0.00 0.00 32 1008.3
20260507110505 81 322 2.0 7.0 0.00 0.00 0.00 34 1008.2
20260507110008 81 307 2.0 7.0 0.00 0.00 0.00 34 1008.3
20260507105505 81 318 2.0 7.0 0.00 0.00 0.00 32 1008.3
20260507105009 80 341 2.0 7.0 0.00 0.00 0.00 33 1008.3
20260507104506 80 317 2.0 7.0 0.00 0.00 0.00 33 1008.4
20260507104008 81 292 3.0 9.0 0.00 0.00 0.00 33 1008.4
20260507103504 80 298 3.0 9.0 0.00 0.00 0.00 32 1008.4
20260507103008 81 291 4.0 11.0 0.00 0.00 0.00 33 1008.5
20260507102505 80 271 4.0 11.0 0.00 0.00 0.00 34 1008.3
20260507102008 80 240 3.0 8.0 0.00 0.00 0.00 32 1008.5
20260507101507 80 217 3.0 6.0 0.00 0.00 0.00 32 1008.5
20260507101008 80 234 3.0 7.0 0.00 0.00 0.00 32 1008.5
20260507100504 80 264 4.0 8.0 0.00 0.00 0.00 32 1008.6
20260507100009 80 267 3.0 8.0 0.00 0.00 0.00 31 1008.6
20260507095504 80 207 2.0 6.0 0.00 0.00 0.00 31 1008.6
20260507095008 80 154 2.0 6.0 0.00 0.00 0.00 30 1008.5
20260507094504 80 223 2.0 6.0 0.00 0.00 0.00 29 1008.6
20260507094007 80 265 3.0 9.0 0.00 0.00 0.00 28 1008.7
20260507093505 79 274 4.0 9.0 0.00 0.00 0.00 29 1008.6
20260507093007 80 273 4.0 8.0 0.00 0.00 0.00 28 1008.7
20260507092505 79 271 4.0 9.0 0.00 0.00 0.00 29 1008.8
20260507092007 79 282 3.0 9.0 0.00 0.00 0.00 30 1008.8
20260507091505 79 344 2.0 7.0 0.00 0.00 0.00 30 1008.9
20260507091008 79 351 3.0 7.0 0.00 0.00 0.00 32 1008.9
20260507090504 78 306 3.0 8.0 0.00 0.00 0.00 31 1008.9
20260507090008 79 284 4.0 8.0 0.00 0.00 0.00 31 1008.8
20260507085504 78 275 4.0 8.0 0.00 0.00 0.00 31 1008.9
20260507085008 77 284 3.0 8.0 0.00 0.00 0.00 33 1008.8
20260507084504 79 305 2.0 7.0 0.00 0.00 0.00 33 1008.8
20260507084007 78 297 3.0 6.0 0.00 0.00 0.00 35 1008.6
20260507083504 77 282 3.0 9.0 0.00 0.00 0.00 34 1008.6
20260507083007 78 272 4.0 9.0 0.00 0.00 0.00 35 1008.7
20260507082504 78 266 4.0 9.0 0.00 0.00 0.00 33 1008.8
20260507082008 78 244 3.0 9.0 0.00 0.00 0.00 35 1008.7
20260507081504 79 227 2.0 4.0 0.00 0.00 0.00 35 1008.7
20260507081008 78 298 2.0 6.0 0.00 0.00 0.00 34 1008.7
20260507080504 78 317 3.0 7.0 0.00 0.00 0.00 34 1008.7
20260507080007 78 308 3.0 7.0 0.00 0.00 0.00 35 1008.7
20260507075505 78 306 3.0 8.0 0.00 0.00 0.00 35 1008.8
20260507075007 77 296 2.0 8.0 0.00 0.00 0.00 36 1008.8
20260507074505 78 131 2.0 4.0 0.00 0.00 0.00 35 1008.8
20260507074007 78 163 2.0 6.0 0.00 0.00 0.00 36 1008.7
20260507073505 78 219 2.0 6.0 0.00 0.00 0.00 36 1008.8
20260507073008 78 250 2.0 4.0 0.00 0.00 0.00 36 1008.7
20260507072504 77 246 1.0 4.0 0.00 0.00 0.00 36 1008.7
20260507072008 78 209 1.0 4.0 0.00 0.00 0.00 35 1008.9
20260507071504 78 119 1.0 4.0 0.00 0.00 0.00 35 1008.9
20260507071007 78 320 1.0 6.0 0.00 0.00 0.00 36 1008.9
20260507070504 76 270 2.0 6.0 0.00 0.00 0.00 35 1008.9
20260507070011 76 256 2.0 6.0 0.00 0.00 0.00 36 1009.0
20260507065504 77 179 1.0 4.0 0.00 0.00 0.00 37 1009.1
20260507065008 76 158 2.0 7.0 0.00 0.00 0.00 35 1009.1
20260507064505 75 216 2.0 7.0 0.00 0.00 0.00 36 1009.1
20260507064008 76 249 2.0 7.0 0.00 0.00 0.00 37 1009.3
20260507063504 75 255 3.0 8.0 0.00 0.00 0.00 38 1009.3
20260507063008 74 277 3.0 8.0 0.00 0.00 0.00 38 1009.2
20260507062504 75 241 2.0 8.0 0.00 0.00 0.00 39 1009.2
20260507062007 75 200 2.0 6.0 0.00 0.00 0.00 37 1009.2
20260507061504 74 233 2.0 6.0 0.00 0.00 0.00 36 1009.3
20260507061008 74 281 3.0 9.0 0.00 0.00 0.00 36 1009.3
20260507060504 74 279 3.0 9.0 0.00 0.00 0.00 39 1009.4
20260507060007 75 277 2.0 8.0 0.00 0.00 0.00 37 1009.3
20260507055505 74 225 2.0 7.0 0.00 0.00 0.00 38 1009.2
20260507055008 74 207 3.0 7.0 0.00 0.00 0.00 36 1009.3
20260507054504 73 220 3.0 7.0 0.00 0.00 0.00 36 1009.3
20260507054007 73 253 2.0 7.0 0.00 0.00 0.00 38 1009.2
20260507053504 73 263 3.0 7.0 0.00 0.00 0.00 39 1009.2
20260507053008 73 242 2.0 7.0 0.00 0.00 0.00 39 1009.2
20260507052504 74 228 2.0 9.0 0.00 0.00 0.00 38 1009.2
20260507052007 72 233 2.0 9.0 0.00 0.00 0.00 40 1009.3
20260507051505 73 203 2.0 6.0 0.00 0.00 0.00 39 1009.2
20260507051008 72 210 2.0 6.0 0.00 0.00 0.00 40 1009.4
20260507050504 72 223 2.0 6.0 0.00 0.00 0.00 41 1009.4
20260507050008 71 214 3.0 7.0 0.00 0.00 0.00 40 1009.3
20260507045504 71 232 3.0 7.0 0.00 0.00 0.00 41 1009.4
20260507045008 71 249 3.0 7.0 0.00 0.00 0.00 42 1009.3
20260507044504 70 245 3.0 7.0 0.00 0.00 0.00 42 1009.4
20260507044008 70 245 3.0 6.0 0.00 0.00 0.00 43 1009.3
20260507043504 70 246 3.0 6.0 0.00 0.00 0.00 44 1009.3
20260507043008 69 243 3.0 7.0 0.00 0.00 0.00 45 1009.4
20260507042504 69 250 4.0 7.0 0.00 0.00 0.00 47 1009.4
20260507042007 68 274 4.0 7.0 0.00 0.00 0.00 46 1009.5
20260507041505 68 267 4.0 8.0 0.00 0.00 0.00 48 1009.4
20260507041008 67 269 5.0 9.0 0.00 0.00 0.00 48 1009.3
20260507040504 67 278 5.0 9.0 0.00 0.00 0.00 49 1009.4
20260507040007 67 264 4.0 9.0 0.00 0.00 0.00 49 1009.3
20260507035505 67 253 4.0 8.0 0.00 0.00 0.00 50 1009.3
20260507035008 66 263 4.0 9.0 0.00 0.00 0.00 52 1009.3
20260507034505 66 277 5.0 9.0 0.00 0.00 0.00 51 1009.3
20260507034007 65 278 4.0 8.0 0.00 0.00 0.00 52 1009.4
20260507033505 65 273 4.0 8.0 0.00 0.00 0.00 54 1009.4
20260507033008 65 272 4.0 8.0 0.00 0.00 0.00 52 1009.4
20260507032504 65 261 3.0 8.0 0.00 0.00 0.00 50 1009.4
20260507032008 65 240 2.0 6.0 0.00 0.00 0.00 50 1009.3
20260507031505 65 229 1.0 4.0 0.00 0.00 0.00 50 1009.3
20260507031008 64 241 1.0 4.0 0.00 0.00 0.00 53 1009.3
20260507030504 63 265 1.0 4.0 0.00 0.00 0.00 53 1009.3
20260507030008 62 281 1.0 4.0 0.00 0.00 0.00 56 1009.3
20260507025505 62 285 1.0 2.0 0.00 0.00 0.00 57 1009.4
20260507025008 61 284 1.0 2.0 0.00 0.00 0.00 58 1009.2
20260507024504 60 282 0.0 2.0 0.00 0.00 0.00 57 1009.3
20260507024007 60 193 0.0 2.0 0.00 0.00 0.00 58 1009.3
20260507023505 60 193 0.0 2.0 0.00 0.00 0.00 57 1009.3
20260507023008 60 250 0.0 2.0 0.00 0.00 0.00 58 1009.3
20260507022505 58 85 0.0 2.0 0.00 0.00 0.00 60 1009.3
20260507022008 60 93 0.0 4.0 0.00 0.00 0.00 58 1009.4
20260507021504 59 93 0.0 4.0 0.00 0.00 0.00 59 1009.4
20260507021008 59 93 0.0 2.0 0.00 0.00 0.00 60 1009.3
20260507020505 58 90 1.0 2.0 0.00 0.00 0.00 61 1009.3
20260507020009 57 90 0.0 2.0 0.00 0.00 0.00 61 1009.3
20260507015504 57 90 0.0 2.0 0.00 0.00 0.00 62 1009.5
20260507015008 57 90 1.0 2.0 0.00 0.00 0.00 62 1009.3
20260507014504 55 90 1.0 2.0 0.00 0.00 0.00 64 1009.2
20260507014009 55 90 1.0 2.0 0.00 0.00 0.00 63 1009.3
20260507013504 54 81 1.0 2.0 0.00 0.00 0.00 65 1009.3
20260507013008 54 69 1.0 2.0 0.00 0.00 0.00 66 1009.3
20260507012504 53 69 1.0 2.0 0.00 0.00 0.00 67 1009.2
20260507012008 53 69 1.0 2.0 0.00 0.00 0.00 68 1009.3
20260507011504 52 68 1.0 2.0 0.00 0.00 0.00 69 1009.1
20260507011007 51 69 0.0 2.0 0.00 0.00 0.00 70 1009.2
20260507010505 51 69 0.0 2.0 0.00 0.00 0.00 71 1009.3
20260507010007 50 69 0.0 2.0 0.00 0.00 0.00 74 1009.3
20260507005505 48 68 0.0 2.0 0.00 0.00 0.00 75 1009.2
20260507005008 47 68 0.0 2.0 0.00 0.00 0.00 78 1009.2
20260507004505 46 68 0.0 2.0 0.00 0.00 0.00 79 1009.2
20260507004008 45 68 0.0 2.0 0.00 0.00 0.00 80 1009.3
20260507003504 45 0 0.0 0.0 0.00 0.00 0.00 81 1009.2
20260507003008 44 0 0.0 0.0 0.00 0.00 0.00 83 1009.3
20260507002504 43 0 0.0 0.0 0.00 0.00 0.00 84 1009.3
20260507002007 43 0 0.0 0.0 0.00 0.00 0.00 83 1009.3
20260507001505 43 68 0.0 2.0 0.00 0.00 0.00 82 1009.3
20260507001008 44 68 0.0 2.0 0.00 0.00 0.00 82 1009.3
20260507000505 44 68 0.0 2.0 0.00 0.00 0.00 81 1009.4
20260507000008 44 0 0.0 0.0 0.00 0.00 0.00 79 1009.4
20260506235505 45 68 0.0 2.0 0.00 0.00 0.00 78 1009.4
20260506235007 46 68 0.0 2.0 0.00 0.00 0.00 78 1009.2
20260506234504 46 68 0.0 2.0 0.00 0.00 0.00 78 1009.4
20260506234007 46 68 0.0 2.0 0.00 0.00 0.00 77 1009.4
20260506233504 47 0 0.0 0.0 0.00 0.00 0.00 75 1009.4
20260506233008 48 0 0.0 0.0 0.00 0.00 0.00 75 1009.3
20260506232505 47 68 0.0 2.0 0.00 0.00 0.00 75 1009.3
20260506232007 48 68 0.0 2.0 0.00 0.00 0.00 74 1009.3
20260506231505 48 68 0.0 2.0 0.00 0.00 0.00 74 1009.2
20260506231008 48 68 0.0 2.0 0.00 0.00 0.00 75 1009.3
20260506230504 47 68 0.0 2.0 0.00 0.00 0.00 75 1009.3
20260506230008 48 0 0.0 0.0 0.00 0.00 0.00 75 1009.5
20260506225505 47 0 0.0 0.0 0.00 0.00 0.00 75 1009.2
20260506225008 48 0 0.0 0.0 0.00 0.00 0.00 73 1009.3
20260506224505 48 0 0.0 0.0 0.00 0.00 0.00 72 1009.2
20260506224008 49 0 0.0 0.0 0.00 0.00 0.00 73 1009.4
20260506223504 49 0 0.0 0.0 0.00 0.00 0.00 72 1009.3
20260506223008 49 68 0.0 2.0 0.00 0.00 0.00 72 1009.3
20260506222504 49 69 0.0 2.0 0.00 0.00 0.00 71 1009.3
20260506222008 50 68 0.0 2.0 0.00 0.00 0.00 71 1009.3
20260506221505 49 0 0.0 0.0 0.00 0.00 0.00 71 1009.2
20260506221008 50 0 0.0 0.0 0.00 0.00 0.00 69 1009.2
20260506220504 51 68 0.0 2.0 0.00 0.00 0.00 68 1009.3
20260506220007 51 68 1.0 2.0 0.00 0.00 0.00 67 1009.4
20260506215505 51 68 1.0 2.0 0.00 0.00 0.00 67 1009.4
20260506215007 51 69 1.0 2.0 0.00 0.00 0.00 67 1009.4
20260506214504 52 69 1.0 2.0 0.00 0.00 0.00 67 1009.5
20260506214008 52 69 1.0 2.0 0.00 0.00 0.00 66 1009.5
20260506213504 52 69 1.0 2.0 0.00 0.00 0.00 66 1009.5
20260506213008 52 68 1.0 2.0 0.00 0.00 0.00 67 1009.6
20260506212504 52 68 0.0 2.0 0.00 0.00 0.00 66 1009.5
20260506212008 53 68 0.0 2.0 0.00 0.00 0.00 65 1009.6
20260506211504 53 68 0.0 2.0 0.00 0.00 0.00 64 1009.6
20260506211007 52 69 0.0 2.0 0.00 0.00 0.00 65 1009.6
20260506210504 52 68 0.0 2.0 0.00 0.00 0.00 66 1009.6
20260506210007 53 69 0.0 2.0 0.00 0.00 0.00 65 1009.6
20260506205504 53 79 0.0 2.0 0.00 0.00 0.00 64 1009.5
20260506205007 53 90 0.0 2.0 0.00 0.00 0.00 64 1009.5
20260506204504 53 90 0.0 2.0 0.00 0.00 0.00 64 1009.5
20260506204008 53 90 1.0 2.0 0.00 0.00 0.00 64 1009.6
20260506203504 53 128 1.0 2.0 0.00 0.00 0.00 64 1009.7
20260506203007 55 202 0.0 2.0 0.00 0.00 0.00 62 1009.6
20260506202505 55 156 0.0 2.0 0.00 0.00 0.00 62 1009.6
20260506202007 54 112 0.0 2.0 0.00 0.00 0.00 63 1009.6
20260506201505 54 112 0.0 2.0 0.00 0.00 0.00 63 1009.6
20260506201008 54 111 0.0 2.0 0.00 0.00 0.00 62 1009.7
20260506200504 55 112 0.0 2.0 0.00 0.00 0.00 62 1009.7
20260506200007 56 112 0.0 2.0 0.00 0.00 0.00 61 1009.7
20260506195505 56 112 0.0 2.0 0.00 0.00 0.00 60 1009.7
20260506195008 56 125 0.0 2.0 0.00 0.00 0.00 60 1009.7
20260506194504 57 144 0.0 2.0 0.00 0.00 0.00 59 1009.7
20260506194007 57 144 0.0 2.0 0.00 0.00 0.00 58 1009.8
20260506193505 58 148 0.0 2.0 0.00 0.00 0.00 58 1009.6
20260506193008 58 172 1.0 4.0 0.00 0.00 0.00 57 1009.8
20260506192504 59 174 1.0 4.0 0.00 0.00 0.00 56 1009.6
20260506192007 59 169 1.0 4.0 0.00 0.00 0.00 55 1009.7
20260506191504 59 172 1.0 6.0 0.00 0.00 0.00 55 1009.7
20260506191008 60 168 2.0 6.0 0.00 0.00 0.00 54 1009.8
20260506190504 60 170 2.0 4.0 0.00 0.00 0.00 54 1009.7
20260506190010 60 183 2.0 7.0 0.00 0.00 0.00 53 1009.7
20260506185504 60 192 2.0 7.0 0.00 0.00 0.00 53 1009.8
20260506185007 60 195 3.0 7.0 0.00 0.00 0.00 53 1009.9
20260506184504 61 192 3.0 7.0 0.00 0.00 0.00 51 1009.9
20260506184008 61 193 4.0 8.0 0.00 0.00 0.00 51 1009.9
20260506183504 62 192 4.0 8.0 0.00 0.00 0.00 51 1010.0
20260506183007 62 198 3.0 8.0 0.00 0.00 0.00 50 1009.9
20260506182504 62 198 3.0 8.0 0.00 0.00 0.00 50 1009.9
20260506182008 62 192 3.0 7.0 0.00 0.00 0.00 50 1010.1
20260506181504 62 189 3.0 8.0 0.00 0.00 0.00 50 1009.9
20260506181008 62 184 3.0 8.0 0.00 0.00 0.00 49 1010.0
20260506180504 62 192 3.0 7.0 0.00 0.00 0.00 49 1010.0
20260506180008 62 190 3.0 7.0 0.00 0.00 0.00 49 1010.1
20260506175504 62 185 2.0 7.0 0.00 0.00 0.00 50 1010.0
20260506175008 61 187 1.0 6.0 0.00 0.00 0.00 51 1010.1
20260506174504 60 159 0.0 2.0 0.00 0.00 0.00 52 1010.1
20260506174008 60 151 1.0 4.0 0.00 0.00 0.00 53 1010.2
20260506173504 61 155 1.0 4.0 0.00 0.00 0.00 52 1010.1
20260506173008 61 151 1.0 4.0 0.00 0.00 0.00 52 1010.0
20260506172504 61 149 1.0 4.0 0.00 0.00 0.00 51 1010.0
20260506172008 62 161 1.0 4.0 0.00 0.00 0.00 51 1010.0
20260506171505 61 172 0.0 2.0 0.00 0.00 0.00 51 1010.0
20260506171007 61 136 0.0 2.0 0.00 0.00 0.00 51 1009.9
20260506170504 62 133 1.0 4.0 0.00 0.00 0.00 50 1010.0
20260506170008 62 139 1.0 4.0 0.00 0.00 0.00 50 1010.0
20260506165504 62 153 1.0 4.0 0.00 0.00 0.00 49 1010.0
20260506165008 62 161 0.0 4.0 0.00 0.00 0.00 49 1010.1
20260506164504 62 178 0.0 2.0 0.00 0.00 0.00 49 1010.0
20260506164008 63 201 0.0 2.0 0.00 0.00 0.00 49 1009.9
20260506163504 63 191 0.0 2.0 0.00 0.00 0.00 48 1010.0
20260506163008 63 181 0.0 2.0 0.00 0.00 0.00 47 1010.0
20260506162504 64 187 0.0 2.0 0.00 0.00 0.00 47 1009.9
20260506162007 63 191 0.0 2.0 0.00 0.00 0.00 47 1010.0
20260506161505 64 188 0.0 2.0 0.00 0.00 0.00 47 1010.0
20260506161007 64 148 0.0 4.0 0.00 0.00 0.00 47 1010.0
20260506160505 65 147 1.0 4.0 0.00 0.00 0.00 46 1009.9
20260506160007 65 153 0.0 2.0 0.00 0.00 0.00 45 1010.0
20260506155504 65 161 0.0 2.0 0.00 0.00 0.00 45 1009.9
20260506155007 66 162 1.0 4.0 0.00 0.00 0.00 44 1009.9
20260506154505 66 165 1.0 4.0 0.00 0.00 0.00 44 1009.8
20260506154008 67 163 1.0 4.0 0.00 0.00 0.00 43 1009.7
20260506153504 67 158 1.0 4.0 0.00 0.00 0.00 43 1009.7
20260506153007 67 159 1.0 4.0 0.00 0.00 0.00 43 1009.9
20260506152505 68 169 1.0 4.0 0.00 0.00 0.00 43 1009.6
20260506152007 69 181 1.0 4.0 0.00 0.00 0.00 41 1009.7
20260506151504 69 183 2.0 6.0 0.00 0.00 0.00 40 1009.6
20260506151008 70 173 2.0 6.0 0.00 0.00 0.00 40 1009.7
20260506150504 70 173 2.0 6.0 0.00 0.00 0.00 39 1009.7
20260506150008 71 169 3.0 7.0 0.00 0.00 0.00 39 1009.6
20260506145505 71 167 3.0 8.0 0.00 0.00 0.00 38 1009.6
20260506145008 71 178 3.0 8.0 0.00 0.00 0.00 38 1009.6
20260506144504 72 173 3.0 9.0 0.00 0.00 0.00 37 1009.7